Aérodrome :
LOGIN :

S'inscrire | Disclaimer

   EN    FR    IT 

 










Légende :    VFR   VFR Marginal   IFR   IFR Intensif   IFR Très Intensif
Visi : 
Plafond : 
>= 8 km
>= 3000ft
5 à 8 km
1000 à 3000 ft
1500m à 5 km
500 à 1000 ft
800 à 1500m
200 à 500 ft
< 800m
< 200 ft
Symboles :   Orages  Brouillard  Fortes neiges  Fortes précipitations  Vent > 20 kt
SIGMETs :   Divers  Orages  Givrage  Turbulence  Onde Orograph.  Cendres Volcan.






- Altitude de l'aérodrome : 443 ft
- Code IATA : GNA


UMMG - Grodno

DERNIER METAR :
  • 280900Z 27005G08MPS 9999 FEW033 SCT066 03/M00 Q1003 R17/190065 NOSIG

METARs EXPIRÉS :
  • 280800Z 27004G07MPS 9999 BKN033 BKN066 01/M01 Q1003 R17/190065 NOSIG
  • 280700Z 26004G07MPS 9999 BKN033 BKN066 M01/M03 Q1003 R17/190065 NOSIG

TAF TAF UMMG
Valide du 28 à 09h jusqu'au 28 à 18h UTC


280809Z 2809/2818 27005G10MPS 9999 BKN020
TEMPO 2809/2815 29007G12MPS 3000 -SHSNRA BKN010CB



MET'MAP, la Météo Aéronautique d'un coup d'oeil ! - Copyright ORBIFLY Décembre 2007 - Disclaimer

ORBIFLY MET'MAP TEAM :

Programmation & Développement : Alexandra Zaïnal
Sur une idée originale de : Baudouin d'Aumeries
Assistance à la programmation : Marc-Olivier Méhu
Soutien technique & logistique : Manuel Goepfert

Contact : metmap@orbifly.com




SOURCES & CREDITS :

   NOAA